Home   Weather   Seattle   Past weeks
Flag for USA

Past Weather in Seattle, Washington, USA — Yesterday and Last 2 Weeks

Now
55 °F

Passing clouds.


Feels Like: 54 °F
Forecast: 57 / 46 °F
Wind: 5 mph from Northwest

Location: Seattle Boeing Field

Current Time: Mar 23, 2019 at 9:14:24 pm

Latest Report: Mar 23, 2019 at 7:53 pm


Visibility: 10 mi

Pressure: 30.17 "Hg

Humidity: 55%

Dew Point: 39 °F

Location of SeattleLocation

Past Weather in Seattle — Graph

°F

Seattle Temperature Yesterday

Maximum temperature yesterday: 66 °F (at 1:53 pm)
Minimum temperature yesterday: 48 °F (at 6:53 am)
Average temperature yesterday: 54 °F

High & Low Weather Summary for the Past Weeks

 TemperatureHumidityPressure
High80 °F (Mar 20, 3:03 pm)96% (Mar 9, 7:53 am)30.42 "Hg (Mar 9, 7:53 am)
Low29 °F (Mar 9, 2:53 am)10% (Mar 20, 3:03 pm)29.76 "Hg (Mar 12, 3:53 am)
Average50 °F61%30.13 "Hg
* Reported Mar 8 6:53 pm — Mar 23 7:53 pm, Seattle. Weather by CustomWeather, © 2019

Note: Actual official high and low records may vary slightly from our data, if they occured in-between our weather recording intervals... More about our weather records

Advertising

Seattle Weather History for the Previous 24 Hours

Scroll right to see more
 ConditionsComfort  
Time TempWeatherWind HumidityBarometerVisibility
7:53 pm
Sat, Mar 23
55 °FPassing clouds.5 mph55%30.17 "Hg10 mi
6:53 pm58 °FPassing clouds.No wind43%30.17 "Hg10 mi
5:53 pm58 °FScattered clouds.3 mph44%30.16 "Hg10 mi
4:53 pm59 °FScattered clouds.6 mph44%30.16 "Hg10 mi
3:53 pm58 °FSunny.7 mph51%30.17 "Hg10 mi
2:53 pm58 °FScattered clouds.3 mph50%30.18 "Hg10 mi
1:53 pm58 °FScattered clouds.7 mph51%30.18 "Hg10 mi
12:53 pm56 °FPartly sunny.5 mph55%30.19 "Hg10 mi
11:53 am55 °FPartly sunny.6 mph62%30.19 "Hg10 mi
10:53 am51 °FBroken clouds.No wind74%30.18 "Hg10 mi
9:53 am50 °FSunny.No wind83%30.19 "Hg10 mi
8:53 am48 °FSunny.No windN/A30.17 "Hg10 mi
7:53 am45 °FSunny.No wind93%30.16 "Hg10 mi
6:53 am43 °FOvercast.No windN/A30.15 "Hg10 mi
5:53 am46 °FClear.No wind89%30.14 "Hg10 mi
4:53 am46 °FPassing clouds.No wind89%30.12 "Hg10 mi
3:53 am47 °FPassing clouds.5 mph86%30.12 "Hg10 mi
2:53 am48 °FPassing clouds.6 mph83%30.11 "Hg10 mi
1:53 am50 °FMostly cloudy.7 mph80%30.11 "Hg10 mi
12:53 am50 °FMostly cloudy.7 mph80%30.09 "Hg10 mi
11:53 pm
Fri, Mar 22
51 °FMostly cloudy.6 mph80%30.07 "Hg10 mi
10:53 pm51 °FMostly cloudy.6 mph77%30.05 "Hg10 mi
9:53 pm52 °FOvercast.5 mphN/A30.03 "Hg10 mi
Weather by CustomWeather, © 2019

See weather overview